Hourly Weather Kiszewy

Today, 25 July, Sunday

Time Temperature Precipitation Wind Pressure Humidity
00:00 +18°C° 0 mm 3 mps 749 mmHg 71%
01:00 +18°C° 0 mm 3 mps 749 mmHg 71%
02:00 +18°C° 0 mm 3 mps 749 mmHg 72%
03:00 +18°C° 0 mm 3 mps 749 mmHg 73%
04:00 +18°C° 0 mm 3 mps 748 mmHg 73%
05:00 +19°C° 0 mm 3 mps 748 mmHg 71%
06:00 +21°C° 0 mm 3 mps 748 mmHg 68%
07:00 +22°C° 0 mm 3 mps 748 mmHg 67%
08:00 +24°C° 0 mm 3 mps 749 mmHg 64%
09:00 +25°C° 0 mm 3 mps 749 mmHg 62%
10:00 +26°C° 0 mm 3 mps 749 mmHg 60%
11:00 +26°C° 0 mm 3 mps 749 mmHg 56%
12:00 +27°C° 0 mm 3 mps 749 mmHg 52%
13:00 +28°C° 0 mm 4 mps 749 mmHg 48%
14:00 +27°C° 0 mm 3 mps 749 mmHg 53%
15:00 +26°C° 0 mm 3 mps 749 mmHg 59%
16:00 +25°C° 0 mm 2 mps 749 mmHg 65%
17:00 +24°C° 0 mm 2 mps 749 mmHg 67%
18:00 +24°C° 0 mm 2 mps 749 mmHg 70%
19:00 +23°C° 0 mm 1 mps 749 mmHg 72%
20:00 +21°C° 0 mm 2 mps 749 mmHg 75%
21:00 +20°C° 0 mm 2 mps 749 mmHg 78%
22:00 +19°C° 0 mm 2 mps 749 mmHg 81%
23:00 +19°C° 0 mm 3 mps 748 mmHg 80%

Tomorrow, 26 July, Monday

Time Temperature Precipitation Wind Pressure Humidity
00:00 +20°C° 0 mm 3 mps 748 mmHg 79%
01:00 +20°C° 0 mm 3 mps 748 mmHg 78%
02:00 +20°C° 0 mm 3 mps 748 mmHg 77%
03:00 +20°C° 0 mm 4 mps 747 mmHg 75%
04:00 +20°C° 0 mm 4 mps 747 mmHg 74%
05:00 +21°C° 0 mm 3 mps 747 mmHg 73%
06:00 +22°C° 0 mm 3 mps 747 mmHg 71%
07:00 +22°C° 0 mm 3 mps 747 mmHg 70%
08:00 +25°C° 0 mm 3 mps 747 mmHg 65%
09:00 +26°C° 0 mm 2 mps 748 mmHg 60%
10:00 +27°C° 0 mm 2 mps 748 mmHg 55%
11:00 +28°C° 0 mm 2 mps 747 mmHg 53%
12:00 +29°C° 0 mm 1 mps 747 mmHg 50%
13:00 +30°C° 0 mm 1 mps 747 mmHg 48%
14:00 +30°C° 0 mm 1 mps 747 mmHg 48%
15:00 +30°C° 0 mm 1 mps 747 mmHg 48%
16:00 +30°C° 0 mm 2 mps 747 mmHg 49%
17:00 +29°C° 0 mm 1 mps 747 mmHg 54%
18:00 +28°C° 0 mm 1 mps 747 mmHg 59%
19:00 +26°C° 0 mm 1 mps 747 mmHg 65%
20:00 +25°C° 0 mm 2 mps 747 mmHg 67%
21:00 +24°C° 0 mm 2 mps 747 mmHg 70%
22:00 +23°C° 0 mm 2 mps 747 mmHg 72%
23:00 +23°C° 0 mm 2 mps 747 mmHg 72%

Day after tomorrow, 27 July, Tuesday

Time Temperature Precipitation Wind Pressure Humidity
00:00 +23°C° 0 mm 2 mps 747 mmHg 72%
01:00 +21°C° 0 mm 2 mps 747 mmHg 72%
02:00 +21°C° 0 mm 2 mps 747 mmHg 74%
03:00 +20°C° 0 mm 2 mps 747 mmHg 76%
04:00 +20°C° 0 mm 3 mps 747 mmHg 78%
05:00 +21°C° 0.1 mm 3 mps 748 mmHg 77%
06:00 +22°C° 0.1 mm 3 mps 748 mmHg 76%
07:00 +22°C° 0.1 mm 4 mps 748 mmHg 75%
08:00 +23°C° 0 mm 4 mps 748 mmHg 74%
09:00 +23°C° 0 mm 4 mps 749 mmHg 74%
10:00 +23°C° 0 mm 4 mps 749 mmHg 73%
11:00 +25°C° 0 mm 4 mps 749 mmHg 68%
12:00 +26°C° 0 mm 4 mps 749 mmHg 63%
13:00 +27°C° 0 mm 4 mps 749 mmHg 57%
14:00 +28°C° 0 mm 4 mps 749 mmHg 53%
15:00 +29°C° 0 mm 4 mps 749 mmHg 48%
16:00 +30°C° 0 mm 4 mps 749 mmHg 44%
17:00 +29°C° 0 mm 3 mps 749 mmHg 48%
18:00 +27°C° 0 mm 2 mps 748 mmHg 52%
19:00 +26°C° 0 mm 2 mps 748 mmHg 55%
20:00 +26°C° 0 mm 2 mps 749 mmHg 55%
21:00 +25°C° 0 mm 2 mps 749 mmHg 54%
22:00 +24°C° 0 mm 2 mps 749 mmHg 54%
23:00 +23°C° 0 mm 2 mps 749 mmHg 56%

28 July, Wednesday

Time Temperature Precipitation Wind Pressure Humidity
00:00 +23°C° 0 mm 2 mps 749 mmHg 59%
01:00 +21°C° 0 mm 2 mps 749 mmHg 62%
02:00 +20°C° 0 mm 2 mps 749 mmHg 63%
03:00 +20°C° 0 mm 2 mps 749 mmHg 65%
04:00 +20°C° 0 mm 2 mps 749 mmHg 67%
05:00 +21°C° 0 mm 2 mps 749 mmHg 65%
06:00 +23°C° 0 mm 2 mps 749 mmHg 63%
07:00 +24°C° 0 mm 2 mps 749 mmHg 62%
08:00 +26°C° 0 mm 3 mps 749 mmHg 58%
09:00 +27°C° 0 mm 3 mps 749 mmHg 54%
10:00 +28°C° 0 mm 3 mps 749 mmHg 51%
11:00 +28°C° 0 mm 3 mps 749 mmHg 50%
12:00 +28°C° 0 mm 4 mps 749 mmHg 49%
13:00 +28°C° 0 mm 4 mps 749 mmHg 48%
14:00 +27°C° 0 mm 4 mps 749 mmHg 50%
15:00 +26°C° 0 mm 4 mps 749 mmHg 53%
16:00 +26°C° 0 mm 4 mps 749 mmHg 55%
17:00 +23°C° 0 mm 4 mps 749 mmHg 62%
18:00 +22°C° 0 mm 4 mps 749 mmHg 69%
19:00 +21°C° 0 mm 3 mps 749 mmHg 76%
20:00 +20°C° 0.2 mm 3 mps 749 mmHg 80%
21:00 +20°C° 0.2 mm 3 mps 750 mmHg 85%
22:00 +19°C° 0.2 mm 2 mps 750 mmHg 89%
23:00 +18°C° 0 mm 2 mps 750 mmHg 90%

29 July, Thursday

Time Temperature Precipitation Wind Pressure Humidity
00:00 +18°C° 0 mm 3 mps 750 mmHg 92%
01:00 +17°C° 0 mm 3 mps 750 mmHg 93%
02:00 +17°C° 0 mm 2 mps 750 mmHg 94%
03:00 +16°C° 0 mm 2 mps 750 mmHg 95%
04:00 +16°C° 0 mm 2 mps 750 mmHg 96%
05:00 +17°C° 0 mm 2 mps 751 mmHg 91%
06:00 +19°C° 0 mm 2 mps 751 mmHg 85%
07:00 +20°C° 0 mm 2 mps 751 mmHg 80%
08:00 +21°C° 0 mm 2 mps 751 mmHg 72%
09:00 +24°C° 0 mm 2 mps 751 mmHg 64%
10:00 +26°C° 0 mm 3 mps 751 mmHg 55%
11:00 +27°C° 0 mm 2 mps 751 mmHg 52%
12:00 +28°C° 0 mm 2 mps 750 mmHg 48%
13:00 +28°C° 0 mm 2 mps 750 mmHg 44%
14:00 +29°C° 0 mm 2 mps 750 mmHg 42%
15:00 +29°C° 0 mm 2 mps 749 mmHg 40%
16:00 +30°C° 0 mm 2 mps 749 mmHg 38%
17:00 +29°C° 0 mm 2 mps 749 mmHg 43%
18:00 +27°C° 0 mm 2 mps 749 mmHg 47%
19:00 +26°C° 0 mm 2 mps 748 mmHg 51%
20:00 +26°C° 0 mm 2 mps 748 mmHg 52%
21:00 +25°C° 0 mm 2 mps 748 mmHg 53%
22:00 +24°C° 0 mm 2 mps 748 mmHg 54%
23:00 +22°C° 0 mm 3 mps 748 mmHg 56%

30 July, Friday

Time Temperature Precipitation Wind Pressure Humidity
00:00 +22°C° 0 mm 3 mps 748 mmHg 59%
01:00 +21°C° 0 mm 3 mps 747 mmHg 61%
02:00 +20°C° 0 mm 3 mps 747 mmHg 63%
03:00 +20°C° 0 mm 3 mps 747 mmHg 65%
04:00 +20°C° 0 mm 3 mps 747 mmHg 67%
05:00 +21°C° 0.1 mm 3 mps 747 mmHg 66%
06:00 +22°C° 0.1 mm 4 mps 747 mmHg 65%
07:00 +23°C° 0.1 mm 4 mps 747 mmHg 64%
08:00 +26°C° 0.1 mm 4 mps 747 mmHg 59%
09:00 +27°C° 0.1 mm 5 mps 746 mmHg 55%
10:00 +29°C° 0.1 mm 5 mps 746 mmHg 50%
11:00 +30°C° 0 mm 6 mps 745 mmHg 48%
12:00 +32°C° 0 mm 6 mps 745 mmHg 45%
13:00 +33°C° 0 mm 6 mps 745 mmHg 43%
14:00 +30°C° 0 mm 6 mps 745 mmHg 49%
15:00 +29°C° 0 mm 6 mps 745 mmHg 55%
16:00 +27°C° 0 mm 6 mps 745 mmHg 61%
17:00 +27°C° 0 mm 6 mps 745 mmHg 64%
18:00 +26°C° 0 mm 5 mps 745 mmHg 67%
19:00 +25°C° 0 mm 5 mps 745 mmHg 70%
20:00 +23°C° 0 mm 4 mps 745 mmHg 72%
21:00 +22°C° 0 mm 3 mps 745 mmHg 73%
22:00 +21°C° 0 mm 2 mps 746 mmHg 75%
23:00 +20°C° 0 mm 2 mps 746 mmHg 75%
Show more